Time,TemperatureF,DewpointF,PressureIn,WindDirection,WindDirectionDegrees,WindSpeedMPH,WindSpeedGustMPH,Humidity,HourlyPrecipIn,Conditions,Clouds,dailyrainin,SoftwareType,DateUTC
2013-03-22 00:03:00,27.2,-1.7,29.71,SW,230,11.5,11.5,28,0.00,CLR,,0.00,WeatherDisplay:10.37,2013-03-22 06:03:00,
2013-03-22 00:08:00,27.5,-1.4,29.71,SW,220,13.8,13.8,28,0.00,CLR,,0.00,WeatherDisplay:10.37,2013-03-22 06:08:00,
2013-03-22 00:13:00,27.6,-1.3,29.71,WSW,249,17.0,17.0,28,0.00,CLR,,0.00,WeatherDisplay:10.37,2013-03-22 06:13:00,
2013-03-22 00:18:00,27.5,-1.4,29.71,WSW,237,18.4,18.4,28,0.00,CLR,,0.00,WeatherDisplay:10.37,2013-03-22 06:18:00,
2013-03-22 00:23:00,27.6,-1.3,29.71,WSW,258,13.8,14.0,28,0.00,CLR,,0.00,WeatherDisplay:10.37,2013-03-22 06:23:00,
2013-03-22 00:28:00,27.6,-1.3,29.71,WSW,252,17.3,17.3,28,0.00,CLR,,0.00,WeatherDisplay:10.37,2013-03-22 06:28:00,
2013-03-22 00:33:00,27.3,-1.6,29.71,WSW,255,11.5,11.5,28,0.00,CLR,,0.00,WeatherDisplay:10.37,2013-03-22 06:33:00,
2013-03-22 00:38:00,27.3,-0.8,29.71,WSW,258,13.8,13.8,29,0.00,CLR,,0.00,WeatherDisplay:10.37,2013-03-22 06:38:00,
2013-03-22 00:43:00,27.0,-1.1,29.71,SW,235,17.3,17.3,29,0.00,CLR,,0.00,WeatherDisplay:10.37,2013-03-22 06:43:00,
2013-03-22 00:48:00,27.0,-1.1,29.72,WSW,245,13.8,13.8,29,0.00,CLR,,0.00,WeatherDisplay:10.37,2013-03-22 06:48:00,
2013-03-22 00:53:00,27.0,-0.4,29.72,WSW,251,19.6,19.6,30,0.00,CLR,,0.00,WeatherDisplay:10.37,2013-03-22 06:53:00,
2013-03-22 00:58:00,26.7,-0.6,29.72,WSW,251,17.3,17.3,30,0.00,CLR,,0.00,WeatherDisplay:10.37,2013-03-22 06:58:00,
2013-03-22 01:03:00,26.6,-0.7,29.71,WSW,242,12.0,12.0,30,0.00,CLR,,0.00,WeatherDisplay:10.37,2013-03-22 07:03:00,
2013-03-22 01:08:00,26.4,-0.2,29.71,West,261,11.5,11.5,31,0.00,CLR,,0.00,WeatherDisplay:10.37,2013-03-22 07:08:00,
2013-03-22 01:13:00,26.3,-0.3,29.71,WSW,258,10.4,10.4,31,0.00,CLR,,0.00,WeatherDisplay:10.37,2013-03-22 07:13:00,
2013-03-22 01:18:00,26.3,-0.3,29.78,WSW,251,17.0,17.0,31,0.00,CLR,,0.00,WeatherDisplay:10.37,2013-03-22 07:18:00,
2013-03-22 01:23:00,26.6,0.0,29.78,SW,232,16.1,16.1,31,0.00,CLR,,0.00,WeatherDisplay:10.37,2013-03-22 07:23:00,
2013-03-22 01:28:00,26.7,0.1,29.78,WSW,238,21.9,21.9,31,0.00,CLR,,0.00,WeatherDisplay:10.37,2013-03-22 07:28:00,
2013-03-22 01:33:00,26.9,0.2,29.77,WSW,258,25.3,25.3,31,0.00,CLR,,0.00,WeatherDisplay:10.37,2013-03-22 07:33:00,
2013-03-22 01:38:00,27.2,-0.2,29.77,WSW,256,24.2,24.2,30,0.00,CLR,,0.00,WeatherDisplay:10.37,2013-03-22 07:38:00,
2013-03-22 01:43:00,27.2,-0.2,29.77,WSW,254,24.2,24.2,30,0.00,CLR,,0.00,WeatherDisplay:10.37,2013-03-22 07:43:00,
2013-03-22 01:48:00,27.2,-0.2,29.78,SW,223,19.6,19.6,30,0.00,CLR,,0.00,WeatherDisplay:10.37,2013-03-22 07:48:00,
2013-03-22 01:53:00,27.3,-0.1,29.78,WSW,249,17.3,17.3,30,0.00,CLR,,0.00,WeatherDisplay:10.37,2013-03-22 07:53:00,
2013-03-22 01:58:00,26.9,-0.5,29.78,SW,220,19.6,19.6,30,0.00,CLR,,0.00,WeatherDisplay:10.37,2013-03-22 07:58:00,
2013-03-22 02:03:00,26.9,-0.5,29.77,WSW,242,24.2,24.2,30,0.00,CLR,,0.00,WeatherDisplay:10.37,2013-03-22 08:03:00,
2013-03-22 02:08:00,26.7,-0.6,29.77,WSW,245,16.1,16.1,30,0.00,CLR,,0.00,WeatherDisplay:10.37,2013-03-22 08:08:00,
2013-03-22 02:13:00,26.6,-0.7,29.77,WSW,252,19.6,19.6,30,0.00,CLR,,0.00,WeatherDisplay:10.37,2013-03-22 08:13:00,
2013-03-22 02:18:00,26.6,-0.7,29.78,WSW,237,18.4,18.4,30,0.00,CLR,,0.00,WeatherDisplay:10.37,2013-03-22 08:18:00,
2013-03-22 02:23:00,26.6,-0.7,29.78,WSW,251,16.1,16.1,30,0.00,CLR,,0.00,WeatherDisplay:10.37,2013-03-22 08:23:00,
2013-03-22 02:28:00,26.4,-0.9,29.78,WSW,251,12.7,12.7,30,0.00,CLR,,0.00,WeatherDisplay:10.37,2013-03-22 08:28:00,
2013-03-22 02:33:00,26.3,-1.0,29.78,West,265,6.9,6.9,30,0.00,CLR,,0.00,WeatherDisplay:10.37,2013-03-22 08:33:00,
2013-03-22 02:38:00,26.3,-1.0,29.78,SW,231,13.8,13.8,30,0.00,CLR,,0.00,WeatherDisplay:10.37,2013-03-22 08:38:00,
2013-03-22 02:43:00,26.3,-1.0,29.78,SSW,211,14.0,14.0,30,0.00,CLR,,0.00,WeatherDisplay:10.37,2013-03-22 08:43:00,
2013-03-22 02:48:00,26.4,-2.4,29.76,SW,232,13.0,13.0,28,0.00,CLR,,0.00,WeatherDisplay:10.37,2013-03-22 08:48:00,
2013-03-22 02:53:00,26.4,-2.4,29.76,WSW,240,10.4,10.4,28,0.00,CLR,,0.00,WeatherDisplay:10.37,2013-03-22 08:53:00,
2013-03-22 02:58:00,26.7,-2.1,29.76,SW,224,12.7,12.7,28,0.00,CLR,,0.00,WeatherDisplay:10.37,2013-03-22 08:58:00,
2013-03-22 03:03:00,27.0,-1.8,29.77,SSW,211,17.0,17.0,28,0.00,CLR,,0.00,WeatherDisplay:10.37,2013-03-22 09:03:00,
2013-03-22 03:08:00,27.0,-1.8,29.77,SSW,194,13.8,13.8,28,0.00,CLR,,0.00,WeatherDisplay:10.37,2013-03-22 09:08:00,
2013-03-22 03:13:00,26.9,-1.9,29.77,SSW,204,11.5,11.5,28,0.00,CLR,,0.00,WeatherDisplay:10.37,2013-03-22 09:13:00,
2013-03-22 03:18:00,27.2,-2.4,29.75,SW,230,16.1,16.1,27,0.00,CLR,,0.00,WeatherDisplay:10.37,2013-03-22 09:18:00,
2013-03-22 03:23:00,27.2,-1.7,29.75,WSW,258,20.7,20.7,28,0.00,CLR,,0.00,WeatherDisplay:10.37,2013-03-22 09:23:00,
2013-03-22 03:28:00,27.0,-1.8,29.75,WSW,251,17.0,17.0,28,0.00,CLR,,0.00,WeatherDisplay:10.37,2013-03-22 09:28:00,
2013-03-22 03:33:00,26.9,-2.7,29.74,SW,234,13.8,13.8,27,0.00,CLR,,0.00,WeatherDisplay:10.37,2013-03-22 09:33:00,
2013-03-22 03:38:00,26.6,-2.2,29.74,SW,227,19.0,19.0,28,0.00,CLR,,0.00,WeatherDisplay:10.37,2013-03-22 09:38:00,
2013-03-22 03:43:00,26.4,-2.4,29.74,SW,231,11.5,11.5,28,0.00,CLR,,0.00,WeatherDisplay:10.37,2013-03-22 09:43:00,
2013-03-22 03:48:00,26.3,-1.7,29.74,SW,234,21.0,21.0,29,0.00,CLR,,0.00,WeatherDisplay:10.37,2013-03-22 09:48:00,
2013-03-22 03:53:00,26.3,-1.7,29.74,WSW,256,12.7,12.7,29,0.00,CLR,,0.00,WeatherDisplay:10.37,2013-03-22 09:53:00,
2013-03-22 03:58:00,26.0,-1.3,29.74,West,266,13.8,13.8,30,0.00,CLR,,0.00,WeatherDisplay:10.37,2013-03-22 09:58:00,
2013-03-22 04:03:00,25.8,-1.4,29.74,WSW,248,18.0,18.0,30,0.00,CLR,,0.00,WeatherDisplay:10.37,2013-03-22 10:03:00,
2013-03-22 04:08:00,25.7,-1.5,29.74,West,259,17.3,17.3,30,0.00,CLR,,0.00,WeatherDisplay:10.37,2013-03-22 10:08:00,
2013-03-22 04:13:00,25.7,-1.5,29.74,WSW,245,12.0,12.0,30,0.00,CLR,,0.00,WeatherDisplay:10.37,2013-03-22 10:13:00,
2013-03-22 04:18:00,25.4,-1.1,29.76,WSW,247,11.5,11.5,31,0.00,CLR,,0.00,WeatherDisplay:10.37,2013-03-22 10:18:00,
2013-03-22 04:23:00,25.1,-1.3,29.76,WSW,256,16.1,16.1,31,0.00,CLR,,0.00,WeatherDisplay:10.37,2013-03-22 10:23:00,
2013-03-22 04:28:00,25.3,-0.5,29.76,West,265,11.5,11.5,32,0.00,CLR,,0.00,WeatherDisplay:10.37,2013-03-22 10:28:00,
2013-03-22 04:33:00,25.1,0.0,29.76,West,278,12.0,12.0,33,0.00,CLR,,0.00,WeatherDisplay:10.37,2013-03-22 10:33:00,
2013-03-22 04:38:00,25.0,-0.1,29.76,WNW,282,6.9,6.9,33,0.00,CLR,,0.00,WeatherDisplay:10.37,2013-03-22 10:38:00,
2013-03-22 04:43:00,25.0,-0.1,29.76,WSW,244,11.5,11.5,33,0.00,CLR,,0.00,WeatherDisplay:10.37,2013-03-22 10:43:00,
2013-03-22 04:48:00,25.0,0.5,29.76,WSW,248,11.5,11.5,34,0.00,CLR,,0.00,WeatherDisplay:10.37,2013-03-22 10:48:00,
2013-03-22 04:53:00,25.0,0.5,29.76,WSW,258,6.0,6.0,34,0.00,CLR,,0.00,WeatherDisplay:10.37,2013-03-22 10:53:00,
2013-03-22 04:58:00,25.0,0.5,29.76,West,264,11.5,11.5,34,0.00,CLR,,0.00,WeatherDisplay:10.37,2013-03-22 10:58:00,
2013-03-22 05:03:00,25.0,0.5,29.76,SW,221,11.5,11.5,34,0.00,CLR,,0.00,WeatherDisplay:10.37,2013-03-22 11:03:00,
2013-03-22 05:08:00,24.8,0.4,29.76,SW,220,10.4,10.4,34,0.00,CLR,,0.00,WeatherDisplay:10.37,2013-03-22 11:08:00,
2013-03-22 05:13:00,25.3,0.2,29.76,West,268,11.5,11.5,33,0.00,CLR,,0.00,WeatherDisplay:10.37,2013-03-22 11:13:00,
2013-03-22 05:18:00,25.0,-0.1,29.77,WSW,254,10.4,10.4,33,0.00,CLR,,0.00,WeatherDisplay:10.37,2013-03-22 11:18:00,
2013-03-22 05:23:00,24.7,0.3,29.77,WSW,258,6.9,6.9,34,0.00,CLR,,0.00,WeatherDisplay:10.37,2013-03-22 11:23:00,
2013-03-22 05:28:00,24.4,0.0,29.77,West,264,6.9,6.9,34,0.00,CLR,,0.00,WeatherDisplay:10.37,2013-03-22 11:28:00,
2013-03-22 05:33:00,24.5,0.1,29.77,WNW,282,11.5,11.5,34,0.00,CLR,,0.00,WeatherDisplay:10.37,2013-03-22 11:33:00,
2013-03-22 05:38:00,24.5,0.1,29.77,WSW,252,5.8,5.8,34,0.00,CLR,,0.00,WeatherDisplay:10.37,2013-03-22 11:38:00,
2013-03-22 05:43:00,24.2,-0.2,29.77,West,272,8.1,8.1,34,0.00,CLR,,0.00,WeatherDisplay:10.37,2013-03-22 11:43:00,
2013-03-22 05:48:00,24.1,0.3,29.78,WSW,249,8.1,8.1,35,0.00,CLR,,0.00,WeatherDisplay:10.37,2013-03-22 11:48:00,
2013-03-22 05:53:00,24.1,0.3,29.78,WSW,248,10.4,10.4,35,0.00,CLR,,0.00,WeatherDisplay:10.37,2013-03-22 11:53:00,
2013-03-22 05:58:00,24.1,0.3,29.78,West,266,7.0,7.0,35,0.00,CLR,,0.00,WeatherDisplay:10.37,2013-03-22 11:58:00,
2013-03-22 06:03:00,24.4,0.6,29.78,WSW,252,11.5,11.5,35,0.00,CLR,,0.00,WeatherDisplay:10.37,2013-03-22 12:03:00,
2013-03-22 06:08:00,24.5,0.7,29.78,WSW,244,10.4,10.4,35,0.00,CLR,,0.00,WeatherDisplay:10.37,2013-03-22 12:08:00,
2013-03-22 06:13:00,24.7,0.9,29.78,WSW,247,17.3,17.3,35,0.00,CLR,,0.00,WeatherDisplay:10.37,2013-03-22 12:13:00,
2013-03-22 06:18:00,24.7,0.9,29.82,WSW,240,17.3,17.3,35,0.00,CLR,,0.00,WeatherDisplay:10.37,2013-03-22 12:18:00,
2013-03-22 06:23:00,24.5,1.3,29.82,WSW,249,16.1,16.1,36,0.00,CLR,,0.00,WeatherDisplay:10.37,2013-03-22 12:23:00,
2013-03-22 06:28:00,24.4,1.2,29.82,West,259,12.7,12.7,36,0.00,CLR,,0.00,WeatherDisplay:10.37,2013-03-22 12:28:00,
2013-03-22 06:33:00,24.2,1.0,29.83,WSW,252,12.7,12.7,36,0.00,CLR,,0.00,WeatherDisplay:10.37,2013-03-22 12:33:00,
2013-03-22 06:38:00,24.1,1.0,29.83,West,265,13.0,13.0,36,0.00,CLR,,0.00,WeatherDisplay:10.37,2013-03-22 12:38:00,
2013-03-22 06:43:00,24.1,1.0,29.83,SW,235,12.7,12.7,36,0.00,CLR,,0.00,WeatherDisplay:10.37,2013-03-22 12:43:00,
2013-03-22 06:48:00,24.4,0.6,29.82,West,279,10.4,10.4,35,0.00,CLR,,0.00,WeatherDisplay:10.37,2013-03-22 12:48:00,
2013-03-22 06:53:00,23.9,0.2,29.82,WSW,255,11.0,11.0,35,0.00,CLR,,0.00,WeatherDisplay:10.37,2013-03-22 12:53:00,
2013-03-22 06:58:00,23.9,-0.4,29.82,West,264,6.9,6.9,34,0.00,CLR,,0.00,WeatherDisplay:10.37,2013-03-22 12:58:00,
2013-03-22 07:03:00,23.3,0.2,29.82,WSW,252,10.4,10.4,36,0.00,CLR,,0.00,WeatherDisplay:10.37,2013-03-22 13:03:00,
2013-03-22 07:08:00,23.5,0.4,29.82,West,264,11.5,11.5,36,0.00,CLR,,0.00,WeatherDisplay:10.37,2013-03-22 13:08:00,
2013-03-22 07:13:00,24.4,1.2,29.82,SW,234,13.8,13.8,36,0.00,CLR,,0.00,WeatherDisplay:10.37,2013-03-22 13:13:00,
2013-03-22 07:18:00,24.1,0.3,29.83,West,262,11.5,11.5,35,0.00,CLR,,0.00,WeatherDisplay:10.37,2013-03-22 13:18:00,
2013-03-22 07:23:00,24.5,0.7,29.83,SW,221,10.4,10.4,35,0.00,CLR,,0.00,WeatherDisplay:10.37,2013-03-22 13:23:00,
2013-03-22 07:28:00,24.8,1.0,29.83,South,189,12.7,12.7,35,0.00,CLR,,0.00,WeatherDisplay:10.37,2013-03-22 13:28:00,
2013-03-22 07:33:00,25.3,0.8,29.81,WNW,285,18.4,18.4,34,0.00,CLR,,0.00,WeatherDisplay:10.37,2013-03-22 13:33:00,
2013-03-22 07:38:00,25.6,-0.2,29.81,West,264,8.0,8.0,32,0.00,CLR,,0.00,WeatherDisplay:10.37,2013-03-22 13:38:00,
2013-03-22 07:43:00,25.8,-0.7,29.81,West,268,18.0,18.0,31,0.00,CLR,,0.00,WeatherDisplay:10.37,2013-03-22 13:43:00,
2013-03-22 07:48:00,26.1,-1.2,29.81,West,265,12.7,12.7,30,0.00,CLR,,0.00,WeatherDisplay:10.37,2013-03-22 13:48:00,
2013-03-22 07:53:00,26.7,-0.6,29.81,SW,232,13.8,13.8,30,0.00,CLR,,0.00,WeatherDisplay:10.37,2013-03-22 13:53:00,
2013-03-22 07:58:00,27.0,-1.1,29.81,SW,231,12.7,12.7,29,0.00,CLR,,0.00,WeatherDisplay:10.37,2013-03-22 13:58:00,
2013-03-22 08:03:00,27.5,-1.4,29.79,WSW,249,17.3,17.3,28,0.00,CLR,,0.00,WeatherDisplay:10.37,2013-03-22 14:03:00,
2013-03-22 08:08:00,27.9,-1.8,29.79,West,276,11.5,11.5,27,0.00,CLR,,0.00,WeatherDisplay:10.37,2013-03-22 14:08:00,
2013-03-22 08:13:00,28.1,-1.7,29.79,West,271,20.7,20.7,27,0.00,CLR,,0.00,WeatherDisplay:10.37,2013-03-22 14:13:00,
2013-03-22 08:18:00,27.8,3.0,29.79,SSW,204,11.5,11.5,34,0.00,CLR,,0.00,WeatherDisplay:10.37,2013-03-22 14:18:00,
2013-03-22 08:23:00,27.2,3.1,29.79,SSE,149,11.5,11.5,35,0.00,CLR,,0.00,WeatherDisplay:10.37,2013-03-22 14:23:00,
2013-03-22 08:28:00,26.9,5.8,29.79,East,94,8.1,8.1,40,0.00,CLR,,0.00,WeatherDisplay:10.37,2013-03-22 14:28:00,
2013-03-22 08:33:00,26.0,4.9,29.80,SE,128,11.5,11.5,40,0.00,CLR,,0.00,WeatherDisplay:10.37,2013-03-22 14:33:00,
2013-03-22 08:38:00,26.0,4.4,29.80,SE,128,8.1,8.1,39,0.00,CLR,,0.00,WeatherDisplay:10.37,2013-03-22 14:38:00,
2013-03-22 08:43:00,26.3,6.3,29.80,NNW,341,11.0,11.0,42,0.00,CLR,,0.00,WeatherDisplay:10.37,2013-03-22 14:43:00,
2013-03-22 08:48:00,26.0,6.5,29.81,SW,218,11.5,11.5,43,0.00,CLR,,0.00,WeatherDisplay:10.37,2013-03-22 14:48:00,
2013-03-22 08:53:00,26.0,4.9,29.81,South,182,19.6,19.6,40,0.00,CLR,,0.00,WeatherDisplay:10.37,2013-03-22 14:53:00,
2013-03-22 08:58:00,26.0,7.0,29.81,SSE,151,8.1,8.1,44,0.00,CLR,,0.00,WeatherDisplay:10.37,2013-03-22 14:58:00,
2013-03-22 09:03:00,26.4,7.4,29.80,South,177,11.5,11.5,44,0.00,CLR,,0.00,WeatherDisplay:10.37,2013-03-22 15:03:00,
2013-03-22 09:08:00,27.0,7.4,29.80,SE,139,8.1,8.1,43,0.00,CLR,,0.00,WeatherDisplay:10.37,2013-03-22 15:08:00,
2013-03-22 09:13:00,27.6,6.9,29.80,SE,128,8.1,8.1,41,0.00,CLR,,0.00,WeatherDisplay:10.37,2013-03-22 15:13:00,
2013-03-22 09:18:00,27.9,7.2,29.79,ESE,122,8.1,8.1,41,0.00,CLR,,0.00,WeatherDisplay:10.37,2013-03-22 15:18:00,
2013-03-22 09:23:00,28.4,6.6,29.79,South,173,16.1,16.1,39,0.00,CLR,,0.00,WeatherDisplay:10.37,2013-03-22 15:23:00,
2013-03-22 09:28:00,28.7,6.8,29.79,SE,131,16.0,16.0,39,0.00,CLR,,0.00,WeatherDisplay:10.37,2013-03-22 15:28:00,
2013-03-22 09:33:00,29.3,6.2,29.78,SSE,155,10.0,10.0,37,0.00,CLR,,0.00,WeatherDisplay:10.37,2013-03-22 15:33:00,
2013-03-22 09:38:00,29.1,6.0,29.78,ESE,120,10.4,10.4,37,0.00,CLR,,0.00,WeatherDisplay:10.37,2013-03-22 15:38:00,
2013-03-22 09:43:00,29.8,6.7,29.78,SE,128,6.9,6.9,37,0.00,CLR,,0.00,WeatherDisplay:10.37,2013-03-22 15:43:00,
2013-03-22 09:48:00,30.1,6.3,29.77,SSE,158,10.4,10.4,36,0.00,CLR,,0.00,WeatherDisplay:10.37,2013-03-22 15:48:00,
2013-03-22 09:53:00,30.6,5.5,29.77,SE,128,11.5,11.5,34,0.00,CLR,,0.00,WeatherDisplay:10.37,2013-03-22 15:53:00,
2013-03-22 09:58:00,30.7,6.2,29.77,East,98,10.4,10.4,35,0.00,CLR,,0.00,WeatherDisplay:10.37,2013-03-22 15:58:00,
2013-03-22 10:03:00,31.0,4.5,29.76,WSW,248,8.1,8.1,32,0.00,CLR,,0.00,WeatherDisplay:10.37,2013-03-22 16:03:00,
2013-03-22 10:08:00,30.6,4.9,29.76,SE,146,17.3,17.3,33,0.00,CLR,,0.00,WeatherDisplay:10.37,2013-03-22 16:08:00,
2013-03-22 10:13:00,31.2,3.3,29.76,SE,135,6.9,6.9,30,0.00,CLR,,0.00,WeatherDisplay:10.37,2013-03-22 16:13:00,
2013-03-22 10:18:00,31.6,4.4,29.75,WSW,240,6.0,6.0,31,0.00,CLR,,0.00,WeatherDisplay:10.37,2013-03-22 16:18:00,
2013-03-22 10:23:00,31.5,3.6,29.75,SSE,163,13.8,13.8,30,0.00,CLR,,0.00,WeatherDisplay:10.37,2013-03-22 16:23:00,
2013-03-22 10:28:00,32.4,2.1,29.75,SSW,199,19.6,19.6,27,0.00,CLR,,0.00,WeatherDisplay:10.37,2013-03-22 16:28:00,
2013-03-22 10:33:00,32.9,0.0,29.74,WNW,283,19.6,19.6,24,0.00,CLR,,0.00,WeatherDisplay:10.37,2013-03-22 16:33:00,
2013-03-22 10:38:00,32.8,0.8,29.74,SSW,201,12.7,12.7,25,0.00,CLR,,0.00,WeatherDisplay:10.37,2013-03-22 16:38:00,
2013-03-22 10:43:00,33.8,3.3,29.74,South,173,13.8,13.8,27,0.00,CLR,,0.00,WeatherDisplay:10.37,2013-03-22 16:43:00,
2013-03-22 10:48:00,34.4,3.8,29.72,South,170,12.0,12.0,27,0.00,CLR,,0.00,WeatherDisplay:10.37,2013-03-22 16:48:00,
2013-03-22 10:53:00,33.1,2.7,29.72,SW,224,20.7,20.7,27,0.00,CLR,,0.00,WeatherDisplay:10.37,2013-03-22 16:53:00,
2013-03-22 10:58:00,32.9,0.0,29.72,WSW,241,20.0,20.0,24,0.00,CLR,,0.00,WeatherDisplay:10.37,2013-03-22 16:58:00,
2013-03-22 11:03:00,34.0,0.9,29.72,SW,225,19.6,19.6,24,0.00,CLR,,0.00,WeatherDisplay:10.37,2013-03-22 17:03:00,
2013-03-22 11:08:00,33.7,-0.2,29.72,SW,220,29.9,29.9,23,0.00,CLR,,0.00,WeatherDisplay:10.37,2013-03-22 17:08:00,
2013-03-22 11:13:00,33.7,-1.2,29.72,SW,220,26.5,26.5,22,0.00,CLR,,0.00,WeatherDisplay:10.37,2013-03-22 17:13:00,
2013-03-22 11:18:00,34.0,0.0,29.73,SW,214,31.1,31.1,23,0.00,CLR,,0.00,WeatherDisplay:10.37,2013-03-22 17:18:00,
2013-03-22 11:23:00,34.1,0.1,29.73,WSW,237,21.9,21.9,23,0.00,CLR,,0.00,WeatherDisplay:10.37,2013-03-22 17:23:00,
2013-03-22 11:28:00,34.6,1.4,29.73,WSW,242,25.3,25.3,24,0.00,CLR,,0.00,WeatherDisplay:10.37,2013-03-22 17:28:00,
2013-03-22 11:33:00,34.9,0.8,29.72,WSW,237,26.5,26.5,23,0.00,CLR,,0.00,WeatherDisplay:10.37,2013-03-22 17:33:00,
2013-03-22 11:38:00,34.9,1.7,29.72,SW,220,20.7,20.7,24,0.00,CLR,,0.00,WeatherDisplay:10.37,2013-03-22 17:38:00,
2013-03-22 11:43:00,34.1,1.0,29.72,WSW,241,18.4,18.4,24,0.00,CLR,,0.00,WeatherDisplay:10.37,2013-03-22 17:43:00,
2013-03-22 11:48:00,34.3,2.1,29.73,WNW,289,18.4,18.4,25,0.00,CLR,,0.00,WeatherDisplay:10.37,2013-03-22 17:48:00,
2013-03-22 11:53:00,34.3,2.1,29.73,WNW,282,21.9,21.9,25,0.00,CLR,,0.00,WeatherDisplay:10.37,2013-03-22 17:53:00,
2013-03-22 11:58:00,34.7,2.4,29.73,WSW,258,19.6,19.6,25,0.00,CLR,,0.00,WeatherDisplay:10.37,2013-03-22 17:58:00,
2013-03-22 12:03:00,35.2,3.7,29.71,NNW,328,24.2,24.2,26,0.00,CLR,,0.00,WeatherDisplay:10.37,2013-03-22 18:03:00,
2013-03-22 12:08:00,35.3,2.9,29.71,West,261,18.4,18.4,25,0.00,CLR,,0.00,WeatherDisplay:10.37,2013-03-22 18:08:00,
2013-03-22 12:13:00,36.3,3.8,29.71,West,278,12.0,12.0,25,0.00,CLR,,0.00,WeatherDisplay:10.37,2013-03-22 18:13:00,
2013-03-22 12:18:00,36.8,3.3,29.68,WNW,288,19.6,19.6,24,0.00,CLR,,0.00,WeatherDisplay:10.37,2013-03-22 18:18:00,
2013-03-22 12:23:00,36.9,4.3,29.68,SW,223,11.5,11.5,25,0.00,CLR,,0.00,WeatherDisplay:10.37,2013-03-22 18:23:00,
2013-03-22 12:28:00,37.3,4.6,29.68,West,262,12.0,12.0,25,0.00,CLR,,0.00,WeatherDisplay:10.37,2013-03-22 18:28:00,
2013-03-22 12:33:00,36.8,5.9,29.68,WNW,303,11.5,11.5,27,0.00,CLR,,0.00,WeatherDisplay:10.37,2013-03-22 18:33:00,
2013-03-22 12:38:00,36.9,4.3,29.68,WNW,300,18.4,18.4,25,0.00,CLR,,0.00,WeatherDisplay:10.37,2013-03-22 18:38:00,
2013-03-22 12:43:00,37.2,4.5,29.68,NNW,344,18.4,18.4,25,0.00,CLR,,0.00,WeatherDisplay:10.37,2013-03-22 18:43:00,
2013-03-22 12:48:00,36.6,-0.8,29.68,NW,309,11.5,11.5,20,0.00,CLR,,0.00,WeatherDisplay:10.37,2013-03-22 18:48:00,
2013-03-22 12:53:00,37.3,2.8,29.68,WNW,296,13.0,13.0,23,0.00,CLR,,0.00,WeatherDisplay:10.37,2013-03-22 18:53:00,
2013-03-22 12:58:00,36.5,0.2,29.68,South,170,12.7,12.7,21,0.00,CLR,,0.00,WeatherDisplay:10.37,2013-03-22 18:58:00,
2013-03-22 13:03:00,36.9,2.5,29.68,WNW,292,13.8,13.8,23,0.00,CLR,,0.00,WeatherDisplay:10.37,2013-03-22 19:03:00,
2013-03-22 13:08:00,37.0,1.6,29.68,SW,220,17.0,17.0,22,0.00,CLR,,0.00,WeatherDisplay:10.37,2013-03-22 19:08:00,
2013-03-22 13:13:00,36.2,-1.1,29.68,SW,221,12.7,12.7,20,0.00,CLR,,0.00,WeatherDisplay:10.37,2013-03-22 19:13:00,
2013-03-22 13:18:00,36.9,-0.5,29.68,SW,234,16.1,16.1,20,0.00,CLR,,0.00,WeatherDisplay:10.37,2013-03-22 19:18:00,
2013-03-22 13:23:00,38.3,-0.4,29.68,WSW,237,17.3,17.3,19,0.00,CLR,,0.00,WeatherDisplay:10.37,2013-03-22 19:23:00,
2013-03-22 13:28:00,38.2,-0.5,29.68,WSW,245,19.6,19.6,19,0.00,CLR,,0.00,WeatherDisplay:10.37,2013-03-22 19:28:00,
2013-03-22 13:33:00,37.6,-2.2,29.66,SW,217,20.7,20.7,18,0.00,CLR,,0.00,WeatherDisplay:10.37,2013-03-22 19:33:00,
2013-03-22 13:38:00,37.6,-1.0,29.66,SW,231,12.7,12.7,19,0.00,CLR,,0.00,WeatherDisplay:10.37,2013-03-22 19:38:00,
2013-03-22 13:43:00,38.2,-1.7,29.66,SSW,206,16.1,16.1,18,0.00,CLR,,0.00,WeatherDisplay:10.37,2013-03-22 19:43:00,
2013-03-22 13:48:00,37.8,-0.9,29.66,South,184,12.7,12.7,19,0.00,CLR,,0.00,WeatherDisplay:10.37,2013-03-22 19:48:00,
2013-03-22 13:53:00,37.3,12.1,29.66,NE,42,17.3,17.3,35,0.00,CLR,,0.00,WeatherDisplay:10.37,2013-03-22 19:53:00,
2013-03-22 13:58:00,36.0,14.0,29.66,NNE,21,19.6,19.6,40,0.00,CLR,,0.00,WeatherDisplay:10.37,2013-03-22 19:58:00,
2013-03-22 14:03:00,34.4,13.6,29.67,NNE,31,19.6,19.6,42,0.00,CLR,,0.00,WeatherDisplay:10.37,2013-03-22 20:03:00,
2013-03-22 14:08:00,32.5,13.5,29.67,NNE,16,20.7,20.7,45,0.00,CLR,,0.00,WeatherDisplay:10.37,2013-03-22 20:08:00,
2013-03-22 14:13:00,31.3,13.9,29.67,ENE,59,17.3,17.3,48,0.00,CLR,,0.00,WeatherDisplay:10.37,2013-03-22 20:13:00,
2013-03-22 14:18:00,31.0,14.0,29.71,NNE,33,17.3,17.3,49,0.00,CLR,,0.00,WeatherDisplay:10.37,2013-03-22 20:18:00,
2013-03-22 14:23:00,30.7,14.2,29.71,East,86,16.1,16.1,50,0.00,CLR,,0.00,WeatherDisplay:10.37,2013-03-22 20:23:00,
2013-03-22 14:28:00,30.4,14.4,29.71,NNE,28,11.0,11.0,51,0.00,CLR,,0.00,WeatherDisplay:10.37,2013-03-22 20:28:00,
2013-03-22 14:33:00,30.3,14.3,29.73,NE,42,19.0,19.0,51,0.00,CLR,,0.00,WeatherDisplay:10.37,2013-03-22 20:33:00,
2013-03-22 14:38:00,28.8,14.2,29.73,NE,46,19.6,19.6,54,0.00,CLR,,0.00,WeatherDisplay:10.37,2013-03-22 20:38:00,
2013-03-22 14:43:00,28.5,14.8,29.73,NE,43,14.0,14.0,56,0.00,CLR,,0.00,WeatherDisplay:10.37,2013-03-22 20:43:00,
2013-03-22 14:48:00,27.9,15.4,29.74,East,80,16.1,16.1,59,0.00,CLR,,0.00,WeatherDisplay:10.37,2013-03-22 20:48:00,
2013-03-22 14:54:00,26.9,16.3,29.74,NE,52,14.0,14.0,64,0.00,CLR,,0.00,WeatherDisplay:10.37,2013-03-22 20:54:00,
2013-03-22 14:59:00,26.6,17.5,29.74,ENE,59,11.5,11.5,68,0.00,CLR,,0.00,WeatherDisplay:10.37,2013-03-22 20:59:00,
2013-03-22 15:04:00,26.3,18.2,29.78,NE,39,11.5,11.5,71,0.00,CLR,,0.00,WeatherDisplay:10.37,2013-03-22 21:04:00,
2013-03-22 15:09:00,26.0,18.8,29.78,NE,50,10.4,10.4,74,0.00,CLR,,0.00,WeatherDisplay:10.37,2013-03-22 21:09:00,
2013-03-22 15:14:00,25.7,18.9,29.78,ENE,60,10.4,10.4,75,0.00,CLR,,0.00,WeatherDisplay:10.37,2013-03-22 21:14:00,
2013-03-22 15:19:00,25.4,19.5,29.79,ENE,59,8.1,8.1,78,0.00,CLR,,0.00,WeatherDisplay:10.37,2013-03-22 21:19:00,
2013-03-22 15:24:00,25.4,20.1,29.79,ENE,59,10.4,10.4,80,0.00,CLR,,0.00,WeatherDisplay:10.37,2013-03-22 21:24:00,
2013-03-22 15:29:00,25.6,20.6,29.79,NNE,19,12.7,12.7,81,0.00,CLR,,0.00,WeatherDisplay:10.37,2013-03-22 21:29:00,
2013-03-22 15:34:00,25.6,20.3,29.78,NNE,28,10.4,10.4,80,0.00,CLR,,0.00,WeatherDisplay:10.37,2013-03-22 21:34:00,
2013-03-22 15:39:00,25.4,20.1,29.78,NNE,12,12.7,12.7,80,0.00,CLR,,0.00,WeatherDisplay:10.37,2013-03-22 21:39:00,
2013-03-22 15:44:00,25.1,19.8,29.78,North,7,10.4,10.4,80,0.00,CLR,,0.00,WeatherDisplay:10.37,2013-03-22 21:44:00,
2013-03-22 15:49:00,24.8,19.8,29.81,NNE,22,5.8,5.8,81,0.00,CLR,,0.00,WeatherDisplay:10.37,2013-03-22 21:49:00,
2013-03-22 15:54:00,25.0,20.3,29.81,NNE,19,6.9,6.9,82,0.00,CLR,,0.00,WeatherDisplay:10.37,2013-03-22 21:54:00,
2013-03-22 15:59:00,25.0,20.0,29.81,NNE,29,10.4,10.4,81,0.00,CLR,,0.00,WeatherDisplay:10.37,2013-03-22 21:59:00,
2013-03-22 16:04:00,25.1,20.1,29.81,ENE,70,5.8,5.8,81,0.00,CLR,,0.00,WeatherDisplay:10.37,2013-03-22 22:04:00,
2013-03-22 16:09:00,25.0,20.0,29.81,East,87,4.6,4.6,81,0.00,CLR,,0.00,WeatherDisplay:10.37,2013-03-22 22:09:00,
2013-03-22 16:14:00,24.5,20.1,29.81,ENE,59,6.9,6.9,83,0.00,CLR,,0.00,WeatherDisplay:10.37,2013-03-22 22:14:00,
2013-03-22 16:19:00,24.2,19.8,29.81,East,93,3.5,3.5,83,0.00,CLR,,0.00,WeatherDisplay:10.37,2013-03-22 22:19:00,
2013-03-22 16:24:00,24.1,20.0,29.81,East,98,3.5,3.5,84,0.00,CLR,,0.00,WeatherDisplay:10.37,2013-03-22 22:24:00,
2013-03-22 16:29:00,24.2,20.3,29.81,NE,56,5.8,5.8,85,0.00,CLR,,0.00,WeatherDisplay:10.37,2013-03-22 22:29:00,
2013-03-22 16:34:00,24.1,20.2,29.83,NE,42,6.9,6.9,85,0.00,CLR,,0.00,WeatherDisplay:10.37,2013-03-22 22:34:00,
2013-03-22 16:39:00,24.1,20.2,29.83,NNE,12,5.0,5.0,85,0.00,CLR,,0.00,WeatherDisplay:10.37,2013-03-22 22:39:00,
2013-03-22 16:44:00,24.1,20.2,29.83,NE,53,3.5,3.5,85,0.00,CLR,,0.00,WeatherDisplay:10.37,2013-03-22 22:44:00,
2013-03-22 16:49:00,23.9,20.0,29.83,ESE,110,5.8,5.8,85,0.00,CLR,,0.00,WeatherDisplay:10.37,2013-03-22 22:49:00,
2013-03-22 16:54:00,23.5,19.7,29.83,East,83,6.9,6.9,85,0.00,CLR,,0.00,WeatherDisplay:10.37,2013-03-22 22:54:00,
2013-03-22 16:59:00,23.2,19.6,29.83,East,101,6.9,6.9,86,0.00,CLR,,0.00,WeatherDisplay:10.37,2013-03-22 22:59:00,
2013-03-22 17:04:00,23.2,19.6,29.84,ENE,70,5.8,5.8,86,0.00,CLR,,0.00,WeatherDisplay:10.37,2013-03-22 23:04:00,
2013-03-22 17:09:00,23.2,19.6,29.84,East,97,5.8,5.8,86,0.00,CLR,,0.00,WeatherDisplay:10.37,2013-03-22 23:09:00,
2013-03-22 17:14:00,23.2,19.6,29.84,East,87,4.6,4.6,86,0.00,CLR,,0.00,WeatherDisplay:10.37,2013-03-22 23:14:00,
2013-03-22 17:19:00,23.2,19.6,29.86,ESE,108,4.6,4.6,86,0.00,CLR,,0.00,WeatherDisplay:10.37,2013-03-22 23:19:00,
2013-03-22 17:24:00,23.2,19.6,29.86,ESE,104,4.6,4.6,86,0.00,CLR,,0.00,WeatherDisplay:10.37,2013-03-22 23:24:00,
2013-03-22 17:29:00,23.3,19.7,29.86,East,80,6.0,6.0,86,0.00,CLR,,0.00,WeatherDisplay:10.37,2013-03-22 23:29:00,
2013-03-22 17:34:00,23.2,19.6,29.86,ESE,104,4.6,4.6,86,0.00,CLR,,0.00,WeatherDisplay:10.37,2013-03-22 23:34:00,
2013-03-22 17:39:00,23.2,19.6,29.86,ESE,104,2.3,2.3,86,0.00,CLR,,0.00,WeatherDisplay:10.37,2013-03-22 23:39:00,
2013-03-22 17:44:00,23.3,20.0,29.86,ESE,117,3.5,3.5,87,0.00,CLR,,0.00,WeatherDisplay:10.37,2013-03-22 23:44:00,
2013-03-22 17:49:00,23.3,19.7,29.86,ESE,110,4.6,4.6,86,0.00,CLR,,0.00,WeatherDisplay:10.37,2013-03-22 23:49:00,
2013-03-22 17:54:00,23.2,19.6,29.86,East,90,5.8,5.8,86,0.00,CLR,,0.00,WeatherDisplay:10.37,2013-03-22 23:54:00,
2013-03-22 17:59:00,23.2,19.6,29.86,East,81,6.0,6.0,86,0.00,CLR,,0.00,WeatherDisplay:10.37,2013-03-22 23:59:00,
2013-03-22 18:04:00,23.2,19.6,29.85,ENE,76,5.8,5.8,86,0.00,CLR,,0.00,WeatherDisplay:10.37,2013-03-23 00:04:00,
2013-03-22 18:09:00,23.0,19.4,29.85,East,83,7.0,7.0,86,0.00,CLR,,0.00,WeatherDisplay:10.37,2013-03-23 00:09:00,
2013-03-22 18:14:00,22.9,19.3,29.85,East,83,5.8,5.8,86,0.00,CLR,,0.00,WeatherDisplay:10.37,2013-03-23 00:14:00,
2013-03-22 18:19:00,22.9,19.3,29.86,East,90,4.6,4.6,86,0.00,CLR,,0.00,WeatherDisplay:10.37,2013-03-23 00:19:00,
2013-03-22 18:24:00,22.9,19.3,29.86,ESE,118,3.5,3.5,86,0.00,CLR,,0.00,WeatherDisplay:10.37,2013-03-23 00:24:00,
2013-03-22 18:29:00,22.7,19.1,29.86,ESE,112,4.6,4.6,86,0.00,CLR,,0.00,WeatherDisplay:10.37,2013-03-23 00:29:00,
2013-03-22 18:34:00,22.9,19.6,29.87,ESE,111,5.8,5.8,87,0.00,CLR,,0.00,WeatherDisplay:10.37,2013-03-23 00:34:00,
2013-03-22 18:39:00,22.9,19.6,29.87,East,86,6.9,6.9,87,0.00,CLR,,0.00,WeatherDisplay:10.37,2013-03-23 00:39:00,
2013-03-22 18:44:00,22.9,19.6,29.87,East,86,5.0,5.0,87,0.00,CLR,,0.00,WeatherDisplay:10.37,2013-03-23 00:44:00,
2013-03-22 18:49:00,22.9,19.6,29.87,ESE,111,8.1,8.1,87,0.00,CLR,,0.00,WeatherDisplay:10.37,2013-03-23 00:49:00,
2013-03-22 18:54:00,22.7,19.4,29.87,ESE,111,4.6,4.6,87,0.00,CLR,,0.00,WeatherDisplay:10.37,2013-03-23 00:54:00,
2013-03-22 18:59:00,22.7,19.4,29.87,East,91,7.0,7.0,87,0.00,CLR,,0.00,WeatherDisplay:10.37,2013-03-23 00:59:00,
2013-03-22 19:04:00,22.7,19.4,29.88,East,101,4.6,4.6,87,0.00,CLR,,0.00,WeatherDisplay:10.37,2013-03-23 01:04:00,
2013-03-22 19:09:00,22.7,19.4,29.88,East,96,5.0,5.0,87,0.00,CLR,,0.00,WeatherDisplay:10.37,2013-03-23 01:09:00,
2013-03-22 19:14:00,22.5,19.2,29.88,ESE,120,3.5,3.5,87,0.00,CLR,,0.00,WeatherDisplay:10.37,2013-03-23 01:14:00,
2013-03-22 19:19:00,22.5,19.2,29.86,ENE,63,8.0,8.0,87,0.00,CLR,,0.00,WeatherDisplay:10.37,2013-03-23 01:19:00,
2013-03-22 19:24:00,22.4,19.1,29.86,ENE,60,11.5,11.5,87,0.00,CLR,,0.00,WeatherDisplay:10.37,2013-03-23 01:24:00,
2013-03-22 19:29:00,22.4,19.1,29.86,East,101,10.4,10.4,87,0.00,CLR,,0.00,WeatherDisplay:10.37,2013-03-23 01:29:00,
2013-03-22 19:34:00,22.2,18.9,29.85,NE,48,8.1,8.1,87,0.00,CLR,,0.00,WeatherDisplay:10.37,2013-03-23 01:34:00,
2013-03-22 19:39:00,22.2,18.9,29.85,ENE,67,8.0,8.0,87,0.00,CLR,,0.00,WeatherDisplay:10.37,2013-03-23 01:39:00,
2013-03-22 19:44:00,22.1,18.8,29.85,NE,52,6.0,6.0,87,0.00,CLR,,0.00,WeatherDisplay:10.37,2013-03-23 01:44:00,
2013-03-22 19:49:00,22.1,18.8,29.87,East,87,10.4,10.4,87,0.00,CLR,,0.00,WeatherDisplay:10.37,2013-03-23 01:49:00,
2013-03-22 19:54:00,21.9,18.6,29.87,East,81,4.6,4.6,87,0.00,CLR,,0.00,WeatherDisplay:10.37,2013-03-23 01:54:00,
2013-03-22 19:59:00,21.8,18.5,29.87,ESE,112,4.6,4.6,87,0.00,CLR,,0.00,WeatherDisplay:10.37,2013-03-23 01:59:00,
2013-03-22 20:04:00,21.8,18.5,29.87,ESE,107,10.4,10.4,87,0.00,CLR,,0.00,WeatherDisplay:10.37,2013-03-23 02:04:00,
2013-03-22 20:09:00,21.8,18.5,29.87,ENE,67,6.9,6.9,87,0.00,CLR,,0.00,WeatherDisplay:10.37,2013-03-23 02:09:00,
2013-03-22 20:14:00,21.8,18.3,29.87,East,86,6.0,6.0,86,0.00,CLR,,0.00,WeatherDisplay:10.37,2013-03-23 02:14:00,
2013-03-22 20:19:00,21.8,18.3,29.87,East,91,5.8,5.8,86,0.00,CLR,,0.00,WeatherDisplay:10.37,2013-03-23 02:19:00,
2013-03-22 20:24:00,21.6,18.1,29.87,East,97,7.0,7.0,86,0.00,CLR,,0.00,WeatherDisplay:10.37,2013-03-23 02:24:00,
2013-03-22 20:29:00,21.6,18.1,29.87,East,80,10.4,10.4,86,0.00,CLR,,0.00,WeatherDisplay:10.37,2013-03-23 02:29:00,
2013-03-22 20:34:00,21.4,17.9,29.87,East,91,10.0,10.0,86,0.00,CLR,,0.00,WeatherDisplay:10.37,2013-03-23 02:34:00,
2013-03-22 20:39:00,21.3,17.8,29.87,East,87,8.1,8.1,86,0.00,CLR,,0.00,WeatherDisplay:10.37,2013-03-23 02:39:00,
2013-03-22 20:44:00,21.3,17.8,29.87,ESE,107,7.0,7.0,86,0.00,CLR,,0.00,WeatherDisplay:10.37,2013-03-23 02:44:00,
2013-03-22 20:49:00,21.3,17.8,29.90,ENE,77,8.1,8.1,86,0.00,CLR,,0.00,WeatherDisplay:10.37,2013-03-23 02:49:00,
2013-03-22 20:54:00,21.3,17.8,29.90,ENE,59,8.1,8.1,86,0.00,CLR,,0.00,WeatherDisplay:10.37,2013-03-23 02:54:00,
2013-03-22 20:59:00,21.1,17.3,29.90,ENE,76,11.5,11.5,85,0.00,CLR,,0.00,WeatherDisplay:10.37,2013-03-23 02:59:00,
2013-03-22 21:04:00,20.6,16.8,29.90,NE,55,10.4,10.4,85,0.00,CLR,,0.00,WeatherDisplay:10.37,2013-03-23 03:04:00,
2013-03-22 21:09:00,20.5,16.7,29.90,East,86,6.9,6.9,85,0.00,CLR,,0.00,WeatherDisplay:10.37,2013-03-23 03:09:00,
2013-03-22 21:14:00,20.3,16.8,29.90,East,86,6.9,6.9,86,0.00,CLR,,0.00,WeatherDisplay:10.37,2013-03-23 03:14:00,
2013-03-22 21:19:00,20.2,16.7,29.88,East,80,8.1,8.1,86,0.00,CLR,,0.00,WeatherDisplay:10.37,2013-03-23 03:19:00,
2013-03-22 21:24:00,20.0,16.5,29.88,East,98,10.4,10.4,86,0.00,CLR,,0.00,WeatherDisplay:10.37,2013-03-23 03:24:00,
2013-03-22 21:29:00,19.9,16.4,29.88,East,79,5.8,5.8,86,0.00,CLR,,0.00,WeatherDisplay:10.37,2013-03-23 03:29:00,
2013-03-22 21:34:00,19.9,16.4,29.89,East,91,6.0,6.0,86,0.00,CLR,,0.00,WeatherDisplay:10.37,2013-03-23 03:34:00,
2013-03-22 21:39:00,19.9,16.4,29.89,NE,35,8.1,8.1,86,0.00,CLR,,0.00,WeatherDisplay:10.37,2013-03-23 03:39:00,
2013-03-22 21:44:00,19.9,16.4,29.89,ENE,74,5.0,5.0,86,0.00,CLR,,0.00,WeatherDisplay:10.37,2013-03-23 03:44:00,
2013-03-22 21:49:00,19.9,16.4,29.90,East,88,10.4,10.4,86,0.00,CLR,,0.00,WeatherDisplay:10.37,2013-03-23 03:49:00,
2013-03-22 21:54:00,19.7,16.2,29.90,East,87,6.0,6.0,86,0.00,CLR,,0.00,WeatherDisplay:10.37,2013-03-23 03:54:00,
2013-03-22 21:59:00,19.7,16.2,29.90,East,96,11.5,11.5,86,0.00,CLR,,0.00,WeatherDisplay:10.37,2013-03-23 03:59:00,
2013-03-22 22:00:00,19.5,16.0,29.90,East,79,11.5,11.5,86,0.00,CLR,,0.00,WeatherDisplay:10.37,2013-03-23 04:00:00,
2013-03-22 22:01:00,19.5,16.0,29.90,ENE,74,8.1,8.1,86,0.00,CLR,,0.00,WeatherDisplay:10.37,2013-03-23 04:01:00,
2013-03-22 22:06:00,19.2,15.7,29.90,East,90,11.5,11.5,86,0.00,CLR,,0.00,WeatherDisplay:10.37,2013-03-23 04:06:00,
2013-03-22 22:11:00,18.9,15.4,29.90,East,88,8.1,8.1,86,0.00,CLR,,0.00,WeatherDisplay:10.37,2013-03-23 04:11:00,
2013-03-22 22:17:00,18.9,15.4,29.88,East,90,10.4,10.4,86,0.00,CLR,,0.00,WeatherDisplay:10.37,2013-03-23 04:17:00,
2013-03-22 22:22:00,18.8,15.3,29.88,ENE,66,11.5,11.5,86,0.00,CLR,,0.00,WeatherDisplay:10.37,2013-03-23 04:22:00,
2013-03-22 22:27:00,18.9,15.4,29.88,ENE,76,6.0,6.0,86,0.00,CLR,,0.00,WeatherDisplay:10.37,2013-03-23 04:27:00,
2013-03-22 22:32:00,18.8,15.3,29.90,East,86,6.9,6.9,86,0.00,CLR,,0.00,WeatherDisplay:10.37,2013-03-23 04:32:00,
2013-03-22 22:37:00,18.6,15.1,29.90,East,81,4.6,4.6,86,0.00,CLR,,0.00,WeatherDisplay:10.37,2013-03-23 04:37:00,
2013-03-22 22:42:00,18.6,15.1,29.90,East,97,3.5,3.5,86,0.00,CLR,,0.00,WeatherDisplay:10.37,2013-03-23 04:42:00,
2013-03-22 22:47:00,18.4,14.9,29.93,ESE,108,3.5,3.5,86,0.00,CLR,,0.00,WeatherDisplay:10.37,2013-03-23 04:47:00,
2013-03-22 22:52:00,18.4,14.9,29.93,ESE,108,5.0,5.0,86,0.00,CLR,,0.00,WeatherDisplay:10.37,2013-03-23 04:52:00,
2013-03-22 22:57:00,18.3,14.8,29.93,East,94,8.1,8.1,86,0.00,CLR,,0.00,WeatherDisplay:10.37,2013-03-23 04:57:00,
2013-03-22 23:02:00,18.1,14.4,29.94,ESE,122,5.8,5.8,85,0.00,CLR,,0.00,WeatherDisplay:10.37,2013-03-23 05:02:00,
2013-03-22 23:07:00,18.1,14.4,29.94,ESE,103,7.0,7.0,85,0.00,CLR,,0.00,WeatherDisplay:10.37,2013-03-23 05:07:00,
2013-03-22 23:12:00,18.0,14.3,29.94,East,93,6.9,6.9,85,0.00,CLR,,0.00,WeatherDisplay:10.37,2013-03-23 05:12:00,
2013-03-22 23:17:00,18.0,14.3,29.92,ESE,107,3.5,3.5,85,0.00,CLR,,0.00,WeatherDisplay:10.37,2013-03-23 05:17:00,
2013-03-22 23:22:00,18.0,14.3,29.92,East,91,8.1,8.1,85,0.00,CLR,,0.00,WeatherDisplay:10.37,2013-03-23 05:22:00,
2013-03-22 23:27:00,17.8,14.1,29.92,ESE,103,8.1,8.1,85,0.00,CLR,,0.00,WeatherDisplay:10.37,2013-03-23 05:27:00,
2013-03-22 23:32:00,17.8,14.1,29.93,ESE,105,4.6,4.6,85,0.00,CLR,,0.00,WeatherDisplay:10.37,2013-03-23 05:32:00,
2013-03-22 23:37:00,17.8,14.1,29.93,ESE,108,3.5,3.5,85,0.00,CLR,,0.00,WeatherDisplay:10.37,2013-03-23 05:37:00,
2013-03-22 23:42:00,17.7,14.0,29.93,East,84,3.5,3.5,85,0.00,CLR,,0.00,WeatherDisplay:10.37,2013-03-23 05:42:00,
2013-03-22 23:47:00,17.7,14.0,29.92,ENE,70,6.0,6.0,85,0.00,CLR,,0.00,WeatherDisplay:10.37,2013-03-23 05:47:00,
2013-03-22 23:52:00,17.7,14.0,29.92,East,84,8.1,8.1,85,0.00,CLR,,0.00,WeatherDisplay:10.37,2013-03-23 05:52:00,
2013-03-22 23:57:00,17.5,13.8,29.92,East,94,8.1,8.1,85,0.00,CLR,,0.00,WeatherDisplay:10.37,2013-03-23 05:57:00,